This is the latest recevied weather packets stored in our database for station/object KK6LVQ-13. If no packets are shown the sender has not sent any weather packets the latest 10 day(s).
| Time | Temp. | Humidity | Pressure | Rain* | Wind** | Luminosity | Snow |
|---|---|---|---|---|---|---|---|
| 1777866234 | 9.44° C | 90% | 1019.2 hPa | 0 mm | - | 0 W/m² | - |
| 1777865930 | 9.44° C | 89% | 1018.9 hPa | 0 mm | - | 0 W/m² | - |
| 1777865629 | 10° C | 89% | 1019.1 hPa | 0 mm | - | 0 W/m² | - |
| 1777865325 | 10° C | 88% | 1018.9 hPa | 0 mm | - | 0 W/m² | - |
| 1777865022 | 10° C | 88% | 1018.7 hPa | 0 mm | - | 0 W/m² | - |
| 1777864719 | 10° C | 87% | 1018.8 hPa | 0 mm | - | 0 W/m² | - |
| 1777864416 | 10.56° C | 86% | 1018.7 hPa | 0 mm | - | 0 W/m² | - |
| 1777864112 | 10.56° C | 85% | 1018.6 hPa | 0 mm | - | 1 W/m² | - |
| 1777863810 | 11.11° C | 82% | 1018.4 hPa | 0 mm | - | 2 W/m² | - |
| 1777863506 | 11.11° C | 80% | 1018.6 hPa | 0 mm | - | 3 W/m² | - |
| 1777863203 | 11.67° C | 80% | 1018.4 hPa | 0 mm | - | 5 W/m² | - |
| 1777862899 | 11.67° C | 79% | 1018.3 hPa | 0 mm | - | 8 W/m² | - |
| 1777862596 | 11.67° C | 78% | 1018 hPa | 0 mm | - | 10 W/m² | - |
| 1777862293 | 11.67° C | 77% | 1018.3 hPa | 0 mm | - | 13 W/m² | - |
| 1777861989 | 12.22° C | 77% | 1018 hPa | 0 mm | - | 15 W/m² | - |
| 1777861685 | 12.22° C | 76% | 1018.4 hPa | 0 mm | - | 17 W/m² | - |
| 1777861382 | 12.78° C | 75% | 1018.2 hPa | 0 mm | - | 20 W/m² | - |
| 1777861078 | 12.78° C | 75% | 1018.3 hPa | 0 mm | - | 24 W/m² | - |
| 1777860776 | 12.78° C | 75% | 1018.3 hPa | 0 mm | - | 31 W/m² | - |
| 1777860473 | 12.78° C | 76% | 1018.2 hPa | 0 mm | - | 43 W/m² | - |
| 1777860169 | 12.78° C | 75% | 1018.4 hPa | 0 mm | - | 33 W/m² | - |
| 1777859865 | 12.78° C | 74% | 1018.2 hPa | 0 mm | - | 32 W/m² | - |
| 1777859562 | 12.78° C | 73% | 1018.3 hPa | 0 mm | - | 47 W/m² | - |
| 1777859258 | 12.78° C | 74% | 1018.3 hPa | 0 mm | - | 57 W/m² | - |
| 1777858955 | 12.78° C | 74% | 1018.3 hPa | 0 mm | - | 66 W/m² | - |
* Rain latest hour (hover to see other rain measurements)
** Current wind speed in m/s (hover to see current wind gust speed)